TimeEST,TemperatureF,Dew PointF,Humidity,Sea Level PressureIn,VisibilityMPH,Wind Direction,Wind SpeedMPH,Gust SpeedMPH,PrecipitationIn,Events,Conditions,WindDirDegrees,DateUTC
12:53 AM,28.9,10.9,47,30.05,10.0,NNW,6.9,-,N/A,,Clear,340,2013-01-21 05:53:00
1:53 AM,28.0,10.9,49,30.07,10.0,NNW,4.6,-,N/A,,Clear,330,2013-01-21 06:53:00
2:53 AM,27.0,10.9,51,30.08,10.0,WNW,3.5,-,N/A,,Clear,300,2013-01-21 07:53:00
3:53 AM,26.1,10.0,51,30.07,10.0,WNW,3.5,-,N/A,,Clear,300,2013-01-21 08:53:00
4:53 AM,25.0,10.9,55,30.07,10.0,WNW,3.5,-,N/A,,Clear,290,2013-01-21 09:53:00
5:53 AM,25.0,10.9,55,30.07,10.0,WNW,3.5,-,N/A,,Clear,290,2013-01-21 10:53:00
6:53 AM,24.1,10.9,57,30.08,10.0,Calm,Calm,-,N/A,,Clear,0,2013-01-21 11:53:00
7:53 AM,24.1,12.0,60,30.08,10.0,Calm,Calm,-,N/A,,Clear,0,2013-01-21 12:53:00
8:53 AM,26.1,10.0,51,30.08,10.0,West,3.5,-,N/A,,Overcast,280,2013-01-21 13:53:00
9:53 AM,27.0,10.9,51,30.08,10.0,West,3.5,-,N/A,,Overcast,260,2013-01-21 14:53:00
10:53 AM,28.0,9.0,45,30.05,10.0,Calm,Calm,-,N/A,,Mostly Cloudy,0,2013-01-21 15:53:00
11:53 AM,30.0,10.0,43,30.01,10.0,SW,9.2,-,N/A,,Overcast,220,2013-01-21 16:53:00
12:53 PM,30.0,10.0,43,29.98,10.0,SSW,8.1,-,N/A,,Overcast,210,2013-01-21 17:53:00
1:53 PM,30.9,10.9,43,29.95,10.0,SW,6.9,-,N/A,,Overcast,230,2013-01-21 18:53:00
2:53 PM,30.9,12.0,46,29.92,10.0,SW,3.5,-,N/A,,Overcast,220,2013-01-21 19:53:00
3:53 PM,30.9,10.9,43,29.87,10.0,South,4.6,-,N/A,,Overcast,190,2013-01-21 20:53:00
4:53 PM,32.0,12.0,44,29.86,10.0,Calm,Calm,-,N/A,,Overcast,0,2013-01-21 21:53:00
5:53 PM,30.9,12.9,47,29.87,10.0,NNE,5.8,-,N/A,,Overcast,20,2013-01-21 22:53:00
6:53 PM,30.9,12.9,47,29.87,10.0,North,6.9,-,N/A,,Overcast,360,2013-01-21 23:53:00
7:11 PM,30.2,17.6,60,29.88,2.5,NNW,5.8,-,0.00,Snow,Light Snow,330,2013-01-22 00:11:00
7:17 PM,28.4,21.2,74,29.88,0.8,Variable,3.5,-,0.00,Snow,Light Snow,0,2013-01-22 00:17:00
7:27 PM,26.6,21.2,80,29.87,0.5,North,5.8,-,0.01,Snow,Snow,350,2013-01-22 00:27:00
7:39 PM,26.6,23.0,86,29.88,1.5,North,5.8,-,0.01,Snow,Light Snow,350,2013-01-22 00:39:00
7:53 PM,26.1,23.0,88,29.88,2.0,NNW,4.6,-,0.01,Snow,Light Snow,330,2013-01-22 00:53:00
7:57 PM,26.6,24.8,93,29.88,3.0,NNW,4.6,-,0.00,Snow,Light Snow,340,2013-01-22 00:57:00
8:53 PM,28.9,18.0,64,29.86,10.0,North,6.9,-,0.00,,Overcast,360,2013-01-22 01:53:00
9:53 PM,28.0,17.1,63,29.85,10.0,North,4.6,-,N/A,,Overcast,350,2013-01-22 02:53:00
10:53 PM,27.0,17.1,66,29.85,10.0,NNW,8.1,-,N/A,,Clear,330,2013-01-22 03:53:00
11:53 PM,25.0,9.0,51,29.86,10.0,NNW,12.7,20.7,N/A,,Clear,340,2013-01-22 04:53:00